Tracking 29768 objects as of 3-Oct-2024
HD Live streaming from Space Station
objects crossing your sky now

STARLINK-11237

Track STARLINK-11237 now!
10-day predictions
STARLINK-11237 is classified as:


NORAD ID: 60934
Int'l Code: 2024-155L
Perigee: 346.4 km
Apogee: 347.3 km
Inclination: 53.2 °
Period: 91.3 minutes
Semi major axis: 6717 km
RCS: Unknown
Launch date: August 31, 2024
Source: United States (US)
Launch site: AIR FORCE WESTERN TEST RANGE (AFWTR)
Your satellite tracking list
Your tracking list is empty




NASA's NSSDC Master Catalog

Two Line Element Set (TLE):
1 60934U 24155L   24277.60566107  .00007222  00000-0  48057-4 0  9993
2 60934  53.1524  34.9110 0000666 107.7126 252.3968 15.76741048  6413
Source of the keplerian elements: AFSPC